This demonstration page uses our WeatherBlox Daily Observations layout. Learn more.

Left ArrowRight Arrow

Hourly Observations for May 17, 2021

Temp ( °F °C ) Dew Point ( °F °C ) Humidity (%) Winds ( mph kmh ) Pressure ( in mb ) Visibility ( mi km ) Precip ( " mm )
12:53 am 00:53 Clear 55 12.8 38 3.3 53 53 ENE 3 6 29.79 1009 10 16 0.00 0.00
1:53 am 01:53 Clear 54 12.2 38 3.3 55 55 Calm 29.78 1008 10 16 0.00 0.00
2:53 am 02:53 Clear 51 10.6 38 3.3 61 61 Calm 29.77 1008 10 16 0.00 0.00
3:53 am 03:53 Clear 48 8.9 38 3.3 68 68 Calm 29.77 1008 10 16 0.00 0.00
4:53 am 04:53 Clear 43 6.1 37 2.8 80 80 WNW 3 6 29.78 1008 10 16 0.00 0.00
5:53 am 05:53 Sunny 46 7.8 37 2.8 71 71 Calm 29.78 1008 10 16 0.00 0.00
6:53 am 06:53 Sunny 50 10 42 5.6 74 74 E 3 6 29.78 1008 10 16 0.00 0.00
7:53 am 07:53 Sunny 58 14.4 42 5.6 56 56 Calm 29.76 1008 10 16 0.00 0.00
8:53 am 08:53 Sunny 63 17.2 43 6.1 48 48 Calm 29.75 1008 10 16 0.00 0.00
9:53 am 09:53 Sunny 70 21.1 44 6.7 39 39 VRB 3 6 29.75 1007 10 16 0.00 0.00
10:53 am 10:53 Sunny 76 24.4 43 6.1 31 31 Calm 29.72 1007 10 16 0.00 0.00
11:53 am 11:53 Sunny 82 27.8 37 2.8 20 20 SW 18 30 29.69 1006 10 16 0.00 0.00
12:06 pm 12:06 Sunny 82 27.8 37 2.8 20 20 SSW 14 22 29.56 1001 10 16 0.00 0.00
12:53 pm 12:53 Sunny 83 28.3 38 3.3 20 20 WSW 16 26 29.67 1005 10 16 0.00 0.00
1:53 pm 13:53 Sunny 84 28.9 37 2.8 19 19 SW 17 28 29.66 1004 10 16 0.00 0.00
2:53 pm 14:53 Sunny 85 29.4 38 3.3 19 19 SW 8 13 29.65 1004 10 16 0.00 0.00
3:53 pm 15:53 Sunny 86 30 36 2.2 17 17 SW 14 22 29.63 1004 10 16 0.00 0.00
4:53 pm 16:53 Sunny 86 30 38 3.3 18 18 S 14 22 29.62 1003 10 16 0.00 0.00
5:53 pm 17:53 Sunny 86 30 38 3.3 18 18 SW 15 24 29.61 1003 10 16 0.00 0.00
6:53 pm 18:53 Sunny 84 28.9 37 2.8 19 19 S 13 20 29.59 1002 10 16 0.00 0.00
7:53 pm 19:53 Sunny 79 26.1 42 5.6 27 27 S 9 15 29.59 1002 10 16 0.00 0.00
8:53 pm 20:53 Sunny 69 20.6 45 7.2 42 42 S 13 20 29.59 1002 10 16 0.00 0.00
9:53 pm 21:53 Clear 65 18.3 41 5 42 42 S 12 19 29.60 1002 10 16 0.00 0.00
10:53 pm 22:53 Clear 65 18.3 40 4.4 40 40 S 9 15 29.59 1002 10 16 0.00 0.00
11:53 pm 23:53 Clear 58 14.4 41 5 53 53 WNW 3 6 29.60 1003 10 16 0.00 0.00

Powered by AerisWeather